Regional Weather Roundup
Issued by NWS Green Bay, WI

Home | Current Version | Previous Version | Graphics & Text | Print | Product List | Glossary Off
Versions: 1 2 3 4 5 6 7 8 9 10 11 12 13 14 15 16 17 18 19 20 21 22 23 24 25 26 27 28 29 30 31 32 33 34 35 36 37 38 39 40 41 42 43 44 45 46 47 48 49 50

000
ASUS43 KGRB 010511
RWRGRB

NORTH-CENTRAL AND NORTHEAST WISCONSIN REGIONAL WEATHER ROUNDUP
NATIONAL WEATHER SERVICE GREEN BAY WI
1200 AM CDT WED JUL 01 2015

WIZ005-009-010>012-018-019-010600-
NORTH CENTRAL WISCONSIN

CITY           SKY/WX    TMP DP  RH WIND       PRES   REMARKS
IRONWOOD       NOT AVBL
MANITOWISH WTR CLEAR     41  41 100 CALM      30.00S
ARBOR VITAE    CLEAR     44  42  92 CALM      29.99F
EAGLE RIVER    CLEAR     44  43  99 CALM      29.98R
LAND O LAKES   CLEAR     40  40  99 CALM      30.00R
RHINELANDER    FOG       42  41  96 W3        29.99S VSB 1/2
PHILLIPS       PTCLDY    43  42  97 CALM      29.99S
ANTIGO         CLEAR     45  45  99 CALM      29.98S
TOMAHAWK       CLEAR     41  40  96 CALM      30.00F
MERRILL        CLEAR     44  44  98 CALM      29.99S
$$

WIZ013-073-010600-
NORTHEAST WISCONSIN

CITY           SKY/WX    TMP DP  RH WIND       PRES   REMARKS
IRON MOUNTAIN  NOT AVBL
MARINETTE      NOT AVBL
OCONTO         CLOUDY    51  49  95 NW3       29.94S
$$

WIZ017-030-035>037-045-010600-
CENTRAL WISCONSIN

CITY           SKY/WX    TMP DP  RH WIND       PRES   REMARKS
MEDFORD        CLEAR     47  44  91 NE5       29.98S
WAUSAU         NOT AVBL
MOSINEE        CLEAR     52  46  82 N7        29.98F
MARSHFIELD     NOT AVBL
WISC RAPIDS    NOT AVBL
STEVENS POINT  CLEAR     49  46  88 CALM      29.97S
WAUPACA        CLEAR     56  48  74 N7        29.96S
SHAWANO        CLEAR     53  46  79 N3        29.96S
CLINTONVILLE   CLEAR     52  46  82 N3        29.96S
$$

WIZ038-039-048-051-010600-
FOX VALLEY

CITY           SKY/WX    TMP DP  RH WIND       PRES   REMARKS
NWS GREEN BAY  NOT AVBL
APPLETON       CLEAR     52  45  76 N9        29.96S
OSHKOSH        NOT AVBL
FOND DU LAC    NOT AVBL
$$

WIZ022-050-052-010600-
EAST CENTRAL WISCONSIN

CITY           SKY/WX    TMP DP  RH WIND       PRES   REMARKS
STURGEON BAY   NOT AVBL
MANITOWOC      CLOUDY    57  50  77 MISG      29.94S
SHEBOYGAN      NOT AVBL
$$

LMZ563-521-522-541>543-010600-
LAKESHORE

STATION/POSITION TIME  TEMP    WIND        PRES    VSBY  WAVE
                       AIR SEA DIR/SP/G                  HT/PER
                 (UTC) (F)     (DEG/KT/KT) (MB)    (MI)  (FT/S)
SHEBOYGAN LKSHOR 0500   54      20/  8/  9 1013.7F
KEWAUNEE LKSHORE 0400   57     340/  6/ 10 1013.0S
ALGOMA MARINA    0410          310/  6/ 11   N/A
NORTHPORT PIER   0400   53     340/ 15/ 19 1013.2F
N MID LAKE BUOY  0450   46 41  320/ 12/ 14 1012.7F         2/ 4
S GREEN BAY BUOY 0500   58 69  340/ 14/ 17 1014.8
SISTER BAY LKSHO 0414   54     360/ 17/ 20   N/A
CHAMBERS ISLAND  0400   56     310/ 12/ 15 1013.9R
MENOMINEE LKSHOR 0400   55     330/ 12/ 16 1014.4S
$$


USA.gov is the U.S. government's official web portal to all federal, state and local government web resources and services.